Regional Weather Roundup
Issued by NWS Newport/Morehead, NC

Current Version | Previous Version | Graphics & Text | Print | Product List | Glossary Off
Versions: 1 2 3 4 5 6 7 8 9 10 11 12 13 14 15 16 17 18 19 20 21 22 23 24 25 26 27 28 29 30 31 32 33 34 35 36 37 38 39 40 41 42 43 44 45 46 47

000
ASUS42 KMHX 200525
RWRMHX
WEATHER ROUNDUP FOR EASTERN NORTH CAROLINA
NATIONAL WEATHER SERVICE NEWPORT/MOREHEAD CITY NC
100 AM EDT SUN AUG 20 2017

NOTE: "FAIR" INDICATES FEW OR NO CLOUDS BELOW 12,000 FEET
WITH NO SIGNIFICANT WEATHER AND/OR OBSTRUCTIONS TO VISIBILITY

NCZ015>017-031-032-045>047-102-103-200600-
NORTH COAST

CITY           SKY/WX    TMP DP  RH WIND       PRES   REMARKS
EDENTON        CLEAR     78  74  87 CALM      30.00R
ELIZABETH CITY CLEAR     74  74 100 SW5       29.99R
KITTY HAWK     PTCLDY    76  75  96 CALM      29.98S
MANTEO         PTCLDY    78  75  91 W5        30.00R

$$

NCZ045>047-081-094-103-104-200600-
CENTRAL COAST

CITY           SKY/WX    TMP DP  RH WIND       PRES   REMARKS
FRISCO         CLEAR     79  77  94 W6        30.00R

$$

NCZ095-097-098-100-101-200600-
SOUTHERN COAST

CITY           SKY/WX    TMP DP  RH WIND       PRES   REMARKS
BEAUFORT       PTCLDY    77  77 100 CALM      30.00S
CEDAR ISLAND   NOT AVBL
JACKSONVILLE   MOCLDY    75  75 100 CALM      29.99S
PINEY ISLAND   CLEAR    N/A N/A N/A S6        29.99S
WILMINGTON     CLEAR     76  75  97 S3        29.99S


$$

NCZ011>013-027>030-043-044-078>080-089-090>093-098-200600-
COASTAL PLAIN

CITY           SKY/WX    TMP DP  RH WIND       PRES   REMARKS
AHOSKIE          N/A     73  73 100 CALM      29.99S
CLINTON        CLEAR     73  73 100 CALM      30.01R
ELIZABETHTOWN  NOT AVBL
GOLDSBORO      CLEAR     74  74 100 CALM      29.99R
GREENVILLE     CLEAR     73  73 100 CALM      30.02R
HAVELOCK       CLEAR     74  73  97 SW5       30.01R
KENANSVILLE    CLEAR     72  72 100 CALM      30.00S FOG
KINSTON        CLEAR     73  72  98 CALM      30.01R FOG
NEW BERN       CLEAR     73  73 100 S3        30.01S
RICHLANDS      CLEAR     73  72  96 CALM      30.01R
ROCKY MOUNT    CLEAR     73  73 100 CALM      30.00S
WASHINGTON     PTCLDY    73  72  96 SW5       30.00R
WHITEVILLE     PTCLDY    75  74  97 CALM      29.99S

$$

AMZ130-135-150-152-154-156-158-170-250-252-270-ANZ085-086-088-633-658-670-200600-
MARINE OBSERVATIONS

STATION/POSITION TIME  TEMP    WIND        PRES    WAVE   SWELL
                       AIR SEA DIR/SP/G            HT/PER HT/PER
                 (UTC) (F)     (DEG/KT/KT) (MB)    (FT/S) (FT/S)
CHESAPEAKE LIGHT NOT AVBL
64 E VA BEACH    NOT AVBL
DUCK             NOT AVBL
2 E DUCK         NOT AVBL
OREGON INLET     NOT AVBL
13E OREGON INLT  NOT AVBL
HATTERAS CG      NOT AVBL
DIAMOND BUOY     NOT AVBL
CAPE LOOKOUT     NOT AVBL
BEAUFORT LAB     NOT AVBL
30 SE NEW RVR IN NOT AVBL
30 SE NEW RVR IN NOT AVBL
27 SE WRIGHTSVLE NOT AVBL
5 SE WRIGHTSVLE  NOT AVBL
225 S CAPE HAT   NOT AVBL
41 SE CHARLESTON NOT AVBL

$$




USA.gov is the U.S. government's official web portal to all federal, state and local government web resources and services.